When you browse on this site, cookies collect data to enhance your experience and personalize the content and advertising you see.
Visit our Privacy Policy to learn more. By continuing to use the site, you agree to this use of cookies and data.
  • In Schweiz
  • Länderverzeichnis
  • Für 7 Tage
  • Wassertemperatur
  • Satellitenkarten
  • Wetterkarte
  • Widgets
  • user-avatar
    Anmelden

    Stündliche Wetter Tovsten'ke

    Heute, 21 Februar, Donnerstag

    Zeit Temperatur Niederschläge Wind Luftdruck Luftfeuchtigkeit
    00:00 +1°C° 0 mm 6 m/S 739 mmHg 79%
    01:00 +1°C° 0 mm 6 m/S 739 mmHg 79%
    02:00 +1°C° 0 mm 6 m/S 739 mmHg 80%
    03:00 -1°C° 0 mm 6 m/S 739 mmHg 82%
    04:00 -1°C° 0 mm 6 m/S 739 mmHg 83%
    05:00 -1°C° 0 mm 6 m/S 740 mmHg 85%
    06:00 -2°C° 0 mm 6 m/S 740 mmHg 86%
    07:00 -2°C° 0 mm 6 m/S 740 mmHg 87%
    08:00 -1°C° 0 mm 5 m/S 740 mmHg 88%
    09:00 -1°C° 0 mm 6 m/S 740 mmHg 84%
    10:00 -1°C° 0 mm 6 m/S 740 mmHg 79%
    11:00 +1°C° 0 mm 6 m/S 741 mmHg 75%
    12:00 +1°C° 0 mm 6 m/S 740 mmHg 76%
    13:00 +2°C° 0 mm 6 m/S 740 mmHg 77%
    14:00 +2°C° 0 mm 6 m/S 740 mmHg 78%
    15:00 +2°C° 0.1 mm 6 m/S 740 mmHg 78%
    16:00 +3°C° 0.1 mm 6 m/S 740 mmHg 79%
    17:00 +3°C° 0.1 mm 6 m/S 740 mmHg 80%
    18:00 +3°C° 0.1 mm 5 m/S 740 mmHg 81%
    19:00 +2°C° 0.1 mm 5 m/S 739 mmHg 82%
    20:00 +2°C° 0.1 mm 5 m/S 739 mmHg 83%
    21:00 +2°C° 0.1 mm 5 m/S 739 mmHg 81%
    22:00 +2°C° 0.1 mm 5 m/S 739 mmHg 80%
    23:00 +2°C° 0.1 mm 5 m/S 739 mmHg 79%

    Morgen, 22 Februar, Freitag

    Zeit Temperatur Niederschläge Wind Luftdruck Luftfeuchtigkeit
    00:00 +2°C° 0.4 mm 5 m/S 738 mmHg 80%
    01:00 +1°C° 0.4 mm 5 m/S 738 mmHg 81%
    02:00 +1°C° 0.4 mm 5 m/S 738 mmHg 82%
    03:00 +1°C° 0.3 mm 5 m/S 737 mmHg 83%
    04:00 +1°C° 0.3 mm 5 m/S 737 mmHg 85%
    05:00 +1°C° 0.3 mm 5 m/S 736 mmHg 86%
    06:00 0°C° 0.5 mm 5 m/S 737 mmHg 87%
    07:00 -1°C° 0.5 mm 5 m/S 737 mmHg 89%
    08:00 -3°C° 0.5 mm 6 m/S 737 mmHg 90%
    09:00 -3°C° 0.3 mm 6 m/S 738 mmHg 87%
    10:00 -4°C° 0.3 mm 7 m/S 738 mmHg 84%
    11:00 -6°C° 0.3 mm 8 m/S 739 mmHg 80%
    12:00 -6°C° 0.1 mm 7 m/S 740 mmHg 75%
    13:00 -6°C° 0.1 mm 7 m/S 741 mmHg 70%
    14:00 -6°C° 0.1 mm 7 m/S 742 mmHg 65%
    15:00 -7°C° 0 mm 7 m/S 743 mmHg 64%
    16:00 -7°C° 0 mm 7 m/S 743 mmHg 62%
    17:00 -8°C° 0 mm 7 m/S 744 mmHg 61%
    18:00 -8°C° 0 mm 7 m/S 744 mmHg 59%
    19:00 -9°C° 0 mm 7 m/S 745 mmHg 57%
    20:00 -9°C° 0 mm 7 m/S 746 mmHg 56%
    21:00 -11°C° 0 mm 7 m/S 746 mmHg 56%
    22:00 -11°C° 0 mm 7 m/S 747 mmHg 56%
    23:00 -11°C° 0 mm 7 m/S 747 mmHg 56%

    übermorgen, 23 Februar, Samstag

    Zeit Temperatur Niederschläge Wind Luftdruck Luftfeuchtigkeit
    00:00 -11°C° 0 mm 7 m/S 748 mmHg 56%
    01:00 -10°C° 0 mm 6 m/S 748 mmHg 55%
    02:00 -10°C° 0 mm 6 m/S 748 mmHg 55%
    03:00 -10°C° 0 mm 6 m/S 749 mmHg 56%
    04:00 -11°C° 0 mm 6 m/S 749 mmHg 57%
    05:00 -11°C° 0 mm 6 m/S 749 mmHg 57%
    06:00 -11°C° 0 mm 6 m/S 749 mmHg 59%
    07:00 -11°C° 0 mm 6 m/S 750 mmHg 61%
    08:00 -11°C° 0 mm 6 m/S 750 mmHg 62%
    09:00 -11°C° 0 mm 6 m/S 750 mmHg 61%
    10:00 -10°C° 0 mm 6 m/S 751 mmHg 59%
    11:00 -10°C° 0 mm 6 m/S 751 mmHg 57%
    12:00 -10°C° 0 mm 6 m/S 751 mmHg 57%
    13:00 -9°C° 0 mm 6 m/S 751 mmHg 56%
    14:00 -9°C° 0 mm 6 m/S 751 mmHg 55%
    15:00 -9°C° 0 mm 6 m/S 751 mmHg 56%
    16:00 -8°C° 0 mm 5 m/S 751 mmHg 57%
    17:00 -8°C° 0 mm 5 m/S 751 mmHg 59%
    18:00 -8°C° 0 mm 5 m/S 751 mmHg 61%
    19:00 -10°C° 0 mm 5 m/S 751 mmHg 62%
    20:00 -10°C° 0 mm 5 m/S 751 mmHg 64%
    21:00 -9°C° 0 mm 4 m/S 752 mmHg 64%
    22:00 -9°C° 0 mm 4 m/S 752 mmHg 64%
    23:00 -8°C° 0 mm 3 m/S 752 mmHg 63%

    24 Februar, Sonntag

    Zeit Temperatur Niederschläge Wind Luftdruck Luftfeuchtigkeit
    00:00 -8°C° 0 mm 3 m/S 752 mmHg 64%
    01:00 -9°C° 0 mm 3 m/S 751 mmHg 65%
    02:00 -8°C° 0 mm 2 m/S 751 mmHg 66%
    03:00 -9°C° 0 mm 3 m/S 751 mmHg 67%
    04:00 -9°C° 0 mm 3 m/S 751 mmHg 67%
    05:00 -9°C° 0 mm 3 m/S 750 mmHg 68%
    06:00 -9°C° 0 mm 3 m/S 751 mmHg 66%
    07:00 -9°C° 0 mm 3 m/S 751 mmHg 64%
    08:00 -9°C° 0 mm 3 m/S 751 mmHg 63%
    09:00 -8°C° 0 mm 3 m/S 751 mmHg 56%
    10:00 -6°C° 0 mm 3 m/S 750 mmHg 50%
    11:00 -5°C° 0 mm 3 m/S 750 mmHg 44%
    12:00 -5°C° 0 mm 4 m/S 750 mmHg 41%
    13:00 -4°C° 0 mm 4 m/S 749 mmHg 38%
    14:00 -3°C° 0 mm 4 m/S 749 mmHg 36%
    15:00 -3°C° 0 mm 4 m/S 748 mmHg 40%
    16:00 -3°C° 0 mm 4 m/S 748 mmHg 44%
    17:00 -3°C° 0 mm 4 m/S 748 mmHg 48%
    18:00 -4°C° 0 mm 4 m/S 747 mmHg 50%
    19:00 -4°C° 0 mm 4 m/S 747 mmHg 53%
    20:00 -4°C° 0 mm 4 m/S 747 mmHg 56%
    21:00 -2°C° 0 mm 3 m/S 747 mmHg 53%
    22:00 -2°C° 0 mm 3 m/S 746 mmHg 51%
    23:00 -2°C° 0 mm 3 m/S 746 mmHg 48%

    25 Februar, Montag

    Zeit Temperatur Niederschläge Wind Luftdruck Luftfeuchtigkeit
    00:00 -2°C° 0 mm 3 m/S 745 mmHg 49%
    01:00 -2°C° 0 mm 3 m/S 745 mmHg 50%
    02:00 -2°C° 0 mm 3 m/S 744 mmHg 52%
    03:00 -2°C° 0 mm 3 m/S 744 mmHg 56%
    04:00 -2°C° 0 mm 3 m/S 743 mmHg 61%
    05:00 -3°C° 0 mm 4 m/S 743 mmHg 65%
    06:00 -3°C° 0.2 mm 4 m/S 743 mmHg 73%
    07:00 -3°C° 0.2 mm 4 m/S 742 mmHg 81%
    08:00 -3°C° 0.2 mm 4 m/S 742 mmHg 89%
    09:00 -4°C° 0.4 mm 5 m/S 742 mmHg 89%
    10:00 -2°C° 0.4 mm 5 m/S 742 mmHg 89%
    11:00 -2°C° 0.4 mm 5 m/S 742 mmHg 89%
    12:00 -2°C° 0.2 mm 6 m/S 742 mmHg 88%
    13:00 -2°C° 0.2 mm 7 m/S 742 mmHg 88%
    14:00 -1°C° 0.2 mm 7 m/S 742 mmHg 87%
    15:00 -1°C° 0 mm 7 m/S 742 mmHg 85%
    16:00 -1°C° 0 mm 8 m/S 742 mmHg 83%
    17:00 -1°C° 0 mm 8 m/S 742 mmHg 81%
    18:00 -2°C° 0 mm 7 m/S 742 mmHg 81%
    19:00 -2°C° 0 mm 7 m/S 743 mmHg 80%
    20:00 -3°C° 0 mm 6 m/S 743 mmHg 80%
    21:00 -3°C° 0 mm 6 m/S 744 mmHg 79%
    22:00 -3°C° 0 mm 6 m/S 744 mmHg 78%
    23:00 -3°C° 0 mm 6 m/S 744 mmHg 77%

    26 Februar, Dienstag

    Zeit Temperatur Niederschläge Wind Luftdruck Luftfeuchtigkeit
    00:00 -3°C° 0 mm 6 m/S 744 mmHg 80%
    01:00 -4°C° 0 mm 6 m/S 744 mmHg 82%
    02:00 -4°C° 0 mm 6 m/S 744 mmHg 84%
    03:00 -4°C° 0 mm 6 m/S 743 mmHg 85%
    04:00 -4°C° 0 mm 6 m/S 743 mmHg 87%
    05:00 -4°C° 0 mm 6 m/S 742 mmHg 88%
    06:00 -4°C° 0 mm 6 m/S 742 mmHg 86%
    07:00 -4°C° 0 mm 6 m/S 741 mmHg 84%
    08:00 -4°C° 0 mm 7 m/S 741 mmHg 83%
    09:00 -3°C° 0 mm 7 m/S 740 mmHg 80%
    10:00 -2°C° 0 mm 7 m/S 740 mmHg 77%
    11:00 -1°C° 0 mm 8 m/S 739 mmHg 74%
    12:00 -1°C° 0 mm 7 m/S 739 mmHg 75%
    13:00 -1°C° 0 mm 7 m/S 738 mmHg 75%
    14:00 0°C° 0 mm 7 m/S 738 mmHg 76%
    15:00 0°C° 0 mm 7 m/S 738 mmHg 77%
    16:00 -1°C° 0 mm 7 m/S 737 mmHg 78%
    17:00 -1°C° 0 mm 6 m/S 737 mmHg 80%
    18:00 -1°C° 0 mm 7 m/S 736 mmHg 81%
    19:00 -1°C° 0 mm 7 m/S 736 mmHg 83%
    20:00 -1°C° 0 mm 8 m/S 736 mmHg 85%
    21:00 -1°C° 0.1 mm 8 m/S 735 mmHg 85%
    22:00 0°C° 0.1 mm 9 m/S 734 mmHg 86%
    23:00 0°C° 0.1 mm 9 m/S 733 mmHg 87%
    Mehr zeigen